Temperature
17 16 16 16 16 16 15 15 15 15 15 14 14 14 14 14 14 13 13 13 13 13 12 12 12 12 12 12 12 11 11 11 11 11 11 11 11 11 11 11 11 11 11
16 16 16 16 16 15 15 15 15 14 14 14 14 14 14 13 13 13 13 13 13 12 12 12 12 12 12 11 11 11 11 11 11 11 11 11 11 10 11 10 10 10 10
16 16 16 15 15 15 15 14 14 14 14 14 14 13 13 13 13 13 13 13 12 12 12 12 12 11 11 11 11 11 11 11 11 10 10 10 10 10 10 10 10 10 10
15 15 15 15 15 14 14 14 14 14 14 13 13 13 13 13 13 13 13 13 12 12 12 12 11 11 11 11 11 11 11 10 10 10 10 10 10 10 10 10 10 10 10
15 15 15 14 14 14 14 14 14 13 13 13 13 13 13 13 13 13 13 13 12 12 12 12 11 11 11 11 11 10 10 10 10 10 10 10 10 9 9 9 9 9 9
15 14 14 14 14 14 14 14 13 13 13 13 13 13 13 13 13 13 13 13 12 12 12 11 11 11 11 10 10 10 10 10 10 10 9 9 9 9 9 9 9 9 9
14 14 14 14 14 14 14 13 13 13 13 13 12 12 13 13 13 13 12 12 12 11 11 11 11 11 10 10 10 10 10 9 9 9 9 9 9 9 9 9 9 9 9
14 14 14 14 14 13 13 13 13 13 13 12 12 12 12 12 12 12 11 11 11 11 11 11 10 10 10 10 10 9 9 9 9 9 9 8 8 8 8 8 8 8 8
14 14 14 14 13 13 13 13 13 13 13 12 12 11 11 11 11 11 11 10 10 10 10 10 10 10 9 9 9 9 9 9 8 8 8 8 8 8 8 8 8 8 8
14 14 14 13 13 13 13 13 13 12 12 12 12 11 11 10 10 10 10 10 9 9 9 9 9 9 9 9 8 8 8 8 8 8 7 8 8 7 8 8 8 8 8
14 14 13 13 13 13 13 13 12 12 12 12 11 11 11 10 10 9 9 9 9 9 8 8 8 8 8 8 8 8 7 7 7 7 7 7 7 7 7 7 7 7 7
14 13 13 13 13 13 13 12 12 12 12 11 11 11 10 10 9 9 8 8 8 8 8 8 8 8 7 7 7 7 7 7 7 7 7 7 7 7 7 7 7 7 7
14 13 13 13 13 12 12 12 12 11 11 11 11 10 10 9 9 8 8 7 7 7 7 7 7 7 7 6 6 6 6 6 6 6 6 6 6 6 6 6 6 6 6
13 13 13 12 12 12 12 11 11 11 11 10 10 10 9 9 8 8 7 7 6 6 6 6 6 6 6 6 6 5 5 5 5 5 5 5 6 6 6 6 6 6 6
12 12 12 12 12 11 11 11 11 10 10 10 9 9 9 8 8 7 7 6 6 6 6 6 6 5 5 5 5 5 5 5 5 5 5 5 5 5 5 5 5 5 5
12 12 11 11 11 11 11 10 10 10 9 9 9 8 8 8 7 7 7 6 5 5 5 5 5 5 5 4 4 4 4 4 4 4 4 4 4 4 4 4 4 5 5
11 11 11 11 10 10 10 10 9 9 9 8 8 8 7 7 6 6 6 6 5 4 4 4 4 4 4 4 4 3 3 3 3 3 3 3 3 3 3 4 4 4 4
10 10 10 10 10 10 9 9 9 8 8 7 7 7 6 6 5 5 5 5 4 4 4 4 3 3 3 3 3 3 3 3 2 2 2 2 2 3 3 3 3 3 3
10 9 9 9 9 9 9 8 8 8 7 7 6 6 5 5 4 4 4 4 4 3 3 3 3 3 3 3 3 2 2 2 2 2 2 2 2 2 2 2 2 2 2
9 9 9 8 8 8 8 7 7 7 6 6 5 5 4 4 4 3 3 3 3 3 3 3 3 2 2 2 2 2 2 2 2 1 1 1 1 1 1 1 1 1 2
8 8 8 8 7 7 7 7 6 6 5 5 4 4 3 3 3 3 3 2 2 2 2 2 2 2 2 2 2 2 2 1 1 1 1 1 1 1 1 1 1 1 1
7 7 7 7 7 6 6 6 5 5 4 4 3 3 2 2 2 2 2 2 2 2 2 2 2 1 1 1 1 1 1 1 1 1 1 0 0 0 0 0 0 0 0
7 7 6 6 6 6 5 5 4 4 4 3 3 2 2 2 1 1 1 1 1 1 1 1 1 1 1 1 1 1 1 1 0 0 0 0 -0 -0 -0 -0 -0 -0 -0
6 6 6 5 5 5 4 4 4 3 3 2 2 2 1 1 1 1 0 1 1 1 1 1 1 1 0 0 0 0 0 0 -0 -0 -0 -0 -0 -1 -1 -1 -1 -1 -1
5 5 5 5 4 4 4 3 3 3 2 2 1 1 1 0 0 0 -0 -0 0 0 0 0 0 0 0 0 0 0 -0 -0 -0 -1 -1 -1 -1 -1 -1 -1 -1 -1 -1
5 4 4 4 4 3 3 3 2 2 1 1 1 0 0 -0 -0 -1 -1 -1 -1 -0 -0 -0 -0 -0 -0 -0 -0 -1 -1 -1 -1 -1 -1 -1 -1 -1 -1 -1 -1 -2 -2
Wind_Speed
5 6 6 6 6 6 5 4 3 2 2 2 2 3 3 4 5 6 7 8 8 7 7 7 7 6 5 4 3 3 3 3 4 4 4 4 4 4 4 3 3 2 1
8 6 5 6 7 8 7 6 4 3 2 2 3 4 4 5 5 6 6 7 7 7 7 7 7 5 5 4 3 3 3 3 3 4 4 5 5 5 5 5 4 4 3
11 8 5 5 7 9 8 5 4 3 2 2 2 3 3 4 4 5 5 6 6 6 6 6 5 5 4 4 3 3 3 3 3 4 4 4 4 5 5 5 5 5 5
13 9 5 5 8 8 6 3 3 2 2 2 2 2 2 2 3 4 4 4 4 4 4 4 4 4 4 3 3 4 4 4 3 3 4 5 5 6 6 6 6 5 5
14 11 7 7 8 6 4 3 3 3 3 2 2 2 2 2 2 3 3 3 3 3 3 3 2 2 2 2 3 4 4 4 4 4 4 5 5 6 6 6 5 6 6
13 11 7 7 7 4 4 3 3 3 2 2 1 1 2 2 1 1 2 2 2 2 1 0 1 2 3 3 3 4 4 5 5 5 4 4 5 6 6 6 6 6 5
12 10 6 5 6 5 5 5 3 3 2 2 1 1 2 1 1 2 2 2 3 3 4 3 3 3 4 5 5 5 5 6 5 5 5 5 5 6 6 6 6 6 6
10 9 7 6 5 5 5 5 4 3 2 3 3 1 2 2 2 2 3 3 3 4 5 5 5 5 5 5 6 7 7 6 6 6 6 6 6 7 6 6 6 6 5
9 8 8 6 5 5 5 5 5 5 3 2 2 3 2 3 1 1 2 3 3 3 4 5 5 5 5 5 6 7 8 8 7 7 7 7 7 7 6 6 5 5 5
8 8 8 7 6 5 5 4 4 3 3 3 2 2 3 3 2 1 0 1 3 3 3 3 4 5 5 5 6 6 7 8 8 8 8 8 7 7 7 6 5 4 4
5 6 6 5 5 5 5 5 4 4 3 3 3 2 2 2 3 3 3 2 1 1 1 2 2 3 5 5 6 7 7 7 8 8 8 8 8 8 7 6 6 4 3
4 5 5 5 4 4 4 4 4 4 3 3 3 3 3 2 3 3 4 3 3 2 1 1 1 2 3 4 5 7 7 7 8 9 9 10 10 9 9 7 7 4 3
4 5 5 5 4 4 4 4 4 3 3 3 3 2 2 2 1 2 3 2 2 1 2 1 1 1 2 3 5 6 7 8 8 9 11 11 11 11 11 10 10 7 5
5 6 6 5 5 5 5 4 3 3 3 3 2 2 1 1 1 1 2 2 2 2 3 3 1 1 2 3 4 6 7 8 8 9 10 11 11 11 12 13 13 12 10
5 6 6 6 5 5 5 5 4 3 3 3 2 2 1 1 0 1 1 2 3 3 4 4 2 2 2 3 4 5 6 7 8 9 10 11 12 12 12 12 13 13 12
6 7 6 7 6 5 5 5 4 4 4 2 2 2 1 1 0 0 0 1 2 3 2 2 2 2 2 3 4 5 6 8 8 8 10 11 11 12 12 12 12 13 13
7 7 7 7 6 5 5 5 4 4 4 3 2 3 2 1 1 0 0 1 1 2 3 1 1 2 2 3 4 5 7 8 8 8 9 10 10 11 12 12 12 13 13
6 6 7 7 6 5 5 5 5 4 4 3 3 3 2 2 1 0 0 1 1 1 2 3 2 2 2 2 3 3 5 7 8 8 9 9 10 10 11 11 12 12 12
7 6 6 6 6 6 5 5 5 4 4 3 3 3 3 3 2 1 1 1 1 0 1 2 2 2 2 2 3 3 3 5 6 7 8 9 9 9 10 10 11 11 11
7 7 6 6 6 5 5 5 5 5 4 3 3 2 2 2 2 2 1 1 1 1 1 2 3 2 2 2 2 2 2 3 3 5 6 7 8 9 9 9 9 9 10
7 7 6 6 5 5 4 5 5 5 5 4 3 2 2 2 3 3 2 2 2 2 2 2 2 2 2 2 2 2 2 2 2 3 2 4 5 7 8 7 7 8 8
6 6 6 6 5 4 7 8 6 5 5 4 3 2 1 1 2 2 2 2 3 3 3 3 3 3 3 3 3 3 3 2 1 1 1 2 3 2 4 5 5 6 6
6 6 6 6 5 5 7 8 8 6 5 4 4 3 2 1 2 2 3 3 2 1 3 4 4 4 4 5 5 4 3 2 2 1 1 1 1 1 2 4 3 4 5
6 5 6 6 5 5 7 7 8 6 4 4 4 4 3 2 2 3 3 3 3 3 2 1 3 3 3 4 5 5 5 4 3 1 1 1 0 0 2 4 3 3 3
5 5 5 6 6 5 7 7 7 5 4 4 3 4 4 4 5 5 4 3 2 2 3 4 4 4 5 7 8 6 5 3 2 1 0 2 1 0 1 1 3 3 2
5 6 5 5 6 5 7 8 8 4 4 3 3 3 6 6 7 7 5 4 3 1 1 3 4 5 5 5 7 5 5 4 2 2 1 2 1 1 0 1 1 2 2
Wind_Direction
182 186 191 193 196 198 198 200 207 223 252 281 285 271 272 274 272 274 277 280 273 270 271 273 274 272 270 276 283 291 296 301 302 297 287 280 282 288 289 283 277 286 297
191 190 193 198 204 207 209 208 209 212 238 263 281 276 271 270 267 269 274 279 276 271 269 270 274 278 281 284 292 306 304 300 299 297 294 286 281 281 277 273 266 260 264
197 195 194 202 211 211 207 205 207 206 226 240 262 271 269 267 267 271 273 273 276 276 269 266 274 287 295 299 309 320 318 317 302 285 287 288 290 283 283 277 269 262 257
201 195 195 209 211 201 193 188 184 196 219 224 246 268 269 269 274 277 278 276 275 277 280 275 277 286 294 308 326 331 337 334 301 287 286 285 285 286 279 272 264 264 259
201 196 200 207 198 187 190 189 184 186 207 223 238 264 271 268 285 294 292 286 278 272 274 288 305 306 307 331 335 333 337 342 334 307 294 293 289 286 275 269 266 264 260
199 196 196 196 183 179 186 187 188 190 196 200 229 282 289 289 325 329 312 317 319 309 302 303 52 43 42 31 5 349 345 346 346 339 323 305 300 294 285 269 263 261 263
194 191 189 183 180 186 189 185 177 188 198 167 148 318 324 10 41 9 19 37 38 43 60 61 68 71 56 45 31 16 360 353 349 346 344 326 315 307 299 284 274 265 262
191 193 187 187 183 181 180 179 174 172 184 169 164 177 310 328 28 41 41 49 42 52 58 57 63 65 63 51 34 25 10 357 350 347 343 334 328 325 318 303 294 279 271
190 190 185 178 177 178 186 186 183 180 189 194 192 183 202 245 285 10 47 49 48 48 49 58 58 55 55 49 35 22 13 1 352 344 342 339 330 324 324 324 315 307 284
182 182 178 175 173 172 178 185 182 180 173 196 209 219 215 189 207 260 247 62 60 53 38 47 50 49 51 49 37 23 17 7 359 351 345 350 351 339 333 332 328 330 322
174 175 177 170 170 170 175 171 166 170 179 187 189 186 209 221 215 223 247 217 178 101 66 58 59 50 49 49 40 32 28 21 11 6 4 8 5 358 348 339 336 329 330
175 169 160 158 162 163 168 164 161 164 173 179 184 188 194 206 214 220 239 224 215 188 140 88 80 65 55 48 41 38 35 34 28 25 25 27 25 20 11 1 358 359 1
182 178 161 154 152 147 142 142 147 153 158 169 181 199 207 215 209 218 233 238 211 179 174 167 124 97 75 61 47 43 43 45 41 39 37 36 35 31 31 30 27 27 36
180 166 155 149 141 136 136 134 135 137 134 140 151 167 179 196 210 221 224 227 236 209 197 200 143 121 95 79 61 59 49 51 53 52 47 44 44 42 44 43 41 41 51
153 149 143 137 133 133 135 134 133 130 129 133 144 144 156 163 184 228 237 230 233 239 223 186 176 132 124 97 79 75 62 59 62 64 61 56 53 52 52 49 45 49 55
141 141 140 137 132 129 126 124 123 127 128 131 136 134 140 168 154 31 258 250 241 239 232 149 156 132 122 108 92 83 76 67 63 71 69 61 58 57 56 55 54 54 57
144 145 145 139 135 131 128 125 125 130 132 128 124 138 145 139 139 39 308 242 239 232 223 140 106 107 112 109 90 83 77 68 62 70 71 67 63 60 58 58 57 58 61
138 140 137 133 132 131 130 133 138 136 138 148 152 148 159 151 148 136 187 225 227 230 189 175 145 128 114 122 107 88 72 71 64 68 74 73 69 65 61 59 58 61 63
131 129 129 133 135 135 135 137 141 138 141 150 156 164 169 159 172 188 200 222 232 214 146 151 144 126 110 110 100 80 70 60 61 60 70 71 70 68 66 64 61 62 65
136 135 132 133 135 136 137 136 137 134 131 128 131 147 160 172 189 197 205 217 197 151 135 136 134 129 124 111 117 122 97 59 47 43 60 65 66 67 63 66 66 66 69
139 135 131 131 133 136 145 146 144 143 140 134 127 133 154 184 199 195 193 194 173 156 146 146 141 135 147 150 165 148 132 103 63 38 42 40 50 54 48 52 61 67 70
134 134 141 144 145 153 162 161 153 148 150 153 155 149 147 151 176 173 153 164 171 171 175 168 167 176 180 171 145 142 132 136 174 35 71 40 44 48 37 36 58 70 73
144 144 149 150 153 164 169 167 164 151 154 163 167 167 165 149 124 90 85 75 59 97 187 172 177 190 179 177 159 149 150 144 155 150 101 88 31 45 25 21 51 82 80
153 154 158 159 160 176 180 177 166 145 150 166 176 180 175 167 158 143 118 88 54 31 55 132 179 187 179 163 160 153 143 118 94 54 84 130 70 32 3 6 34 90 90
158 160 162 165 167 181 188 183 164 145 159 177 185 185 181 185 195 168 142 131 95 28 61 98 118 132 143 149 144 125 131 128 138 163 72 125 123 26 354 343 19 45 85
163 159 164 171 173 182 195 194 177 157 170 180 186 200 205 202 206 189 162 161 173 186 95 83 79 80 87 124 143 143 149 142 144 183 186 128 115 84 45 331 350 15 51
Height
1551 1553 1554 1555 1557 1558 1559 1560 1561 1562 1563 1563 1564 1564 1564 1564 1564 1564 1564 1563 1563 1563 1562 1562 1561 1561 1560 1559 1558 1557 1557 1556 1555 1554 1554 1553 1552 1552 1551 1551 1550 1550 1549
1550 1551 1553 1554 1555 1557 1558 1559 1560 1560 1561 1561 1562 1562 1562 1562 1562 1562 1561 1561 1561 1560 1560 1560 1559 1559 1558 1557 1556 1556 1555 1554 1553 1552 1552 1551 1550 1550 1549 1549 1548 1548 1548
1548 1549 1551 1552 1553 1555 1556 1557 1558 1558 1559 1559 1560 1560 1560 1560 1559 1559 1558 1558 1558 1558 1557 1557 1557 1556 1556 1555 1554 1553 1552 1552 1551 1550 1549 1549 1548 1547 1547 1546 1546 1546 1546
1545 1547 1548 1550 1551 1552 1553 1554 1555 1556 1556 1557 1557 1557 1557 1557 1556 1556 1555 1555 1555 1554 1554 1554 1553 1553 1553 1552 1552 1551 1550 1549 1548 1548 1547 1546 1545 1545 1544 1544 1543 1543 1543
1543 1544 1546 1547 1549 1550 1551 1551 1552 1553 1554 1554 1554 1554 1554 1553 1553 1553 1552 1551 1551 1551 1550 1550 1550 1550 1550 1549 1549 1548 1547 1547 1546 1545 1544 1543 1542 1542 1541 1541 1540 1540 1541
1539 1541 1542 1544 1545 1546 1547 1548 1549 1550 1551 1551 1551 1551 1550 1550 1549 1549 1548 1548 1547 1547 1547 1547 1547 1547 1547 1546 1546 1545 1544 1544 1543 1542 1541 1540 1539 1539 1538 1538 1537 1537 1538
1535 1537 1539 1540 1542 1543 1544 1545 1546 1547 1547 1548 1548 1547 1546 1546 1545 1544 1544 1544 1544 1544 1544 1544 1544 1544 1544 1543 1543 1542 1541 1541 1540 1539 1538 1537 1536 1535 1535 1534 1534 1534 1534
1531 1533 1535 1536 1537 1539 1540 1541 1542 1543 1543 1544 1544 1543 1543 1542 1540 1540 1540 1540 1541 1541 1541 1541 1541 1541 1540 1540 1540 1539 1538 1537 1536 1535 1534 1534 1533 1532 1531 1531 1530 1530 1530
1527 1529 1530 1532 1533 1535 1536 1537 1538 1539 1539 1540 1540 1541 1540 1538 1537 1537 1536 1537 1537 1538 1538 1538 1538 1537 1537 1537 1536 1535 1535 1534 1533 1532 1531 1530 1529 1528 1528 1527 1527 1527 1527
1522 1524 1526 1527 1529 1530 1531 1533 1534 1534 1535 1535 1536 1536 1537 1536 1536 1533 1533 1533 1533 1534 1534 1534 1534 1534 1533 1533 1532 1531 1531 1530 1529 1528 1528 1527 1526 1525 1525 1524 1524 1524 1523
1517 1519 1521 1522 1524 1525 1526 1528 1529 1530 1530 1530 1531 1531 1531 1531 1531 1531 1529 1529 1529 1530 1530 1530 1530 1529 1529 1529 1528 1527 1527 1526 1526 1525 1524 1523 1522 1521 1521 1521 1520 1520 1520
1512 1514 1516 1517 1519 1520 1522 1523 1524 1525 1525 1526 1526 1526 1527 1527 1526 1526 1525 1524 1524 1525 1525 1525 1525 1525 1525 1525 1524 1524 1523 1523 1522 1522 1521 1520 1519 1518 1517 1517 1517 1517 1517
1507 1509 1511 1513 1514 1516 1517 1518 1519 1519 1520 1520 1521 1521 1521 1521 1521 1521 1521 1520 1520 1520 1520 1521 1521 1521 1521 1521 1520 1520 1519 1519 1519 1518 1518 1517 1516 1516 1515 1514 1514 1514 1514
1502 1504 1506 1508 1509 1511 1512 1513 1514 1514 1515 1515 1515 1515 1516 1516 1516 1516 1516 1516 1516 1515 1515 1516 1516 1516 1516 1517 1516 1516 1516 1516 1515 1515 1515 1514 1514 1513 1513 1512 1512 1512 1512
1498 1499 1501 1503 1504 1506 1507 1508 1508 1509 1510 1510 1510 1510 1510 1510 1510 1510 1511 1511 1512 1511 1510 1511 1512 1512 1512 1513 1513 1513 1513 1513 1512 1512 1512 1512 1512 1512 1511 1511 1511 1511 1511
1492 1495 1496 1498 1500 1501 1502 1503 1503 1504 1504 1505 1505 1505 1505 1505 1505 1505 1505 1506 1506 1507 1506 1506 1507 1508 1508 1509 1509 1509 1509 1509 1510 1509 1509 1510 1510 1510 1510 1509 1509 1509 1509
1487 1490 1491 1493 1495 1496 1497 1498 1499 1499 1499 1500 1500 1500 1500 1500 1500 1500 1500 1500 1501 1501 1501 1502 1503 1504 1504 1505 1506 1506 1506 1507 1507 1507 1507 1507 1508 1508 1508 1508 1508 1508 1508
1483 1485 1487 1488 1490 1491 1492 1493 1494 1494 1495 1495 1495 1495 1495 1495 1495 1495 1496 1496 1496 1496 1497 1497 1498 1499 1500 1501 1502 1503 1503 1504 1504 1505 1505 1505 1506 1506 1506 1507 1507 1507 1507
1478 1480 1482 1483 1485 1486 1488 1488 1489 1490 1490 1490 1490 1490 1490 1490 1491 1491 1491 1491 1492 1492 1493 1493 1494 1495 1496 1498 1499 1500 1500 1501 1502 1502 1503 1503 1503 1504 1504 1505 1505 1506 1506
1474 1476 1478 1479 1481 1482 1483 1484 1485 1485 1485 1485 1486 1486 1486 1486 1487 1487 1487 1487 1488 1488 1489 1490 1490 1491 1493 1494 1495 1496 1497 1498 1499 1500 1500 1501 1501 1502 1503 1503 1504 1504 1504
1470 1472 1474 1475 1477 1478 1479 1480 1481 1481 1481 1481 1482 1482 1482 1482 1483 1483 1483 1483 1484 1485 1485 1486 1487 1488 1489 1490 1492 1493 1494 1495 1496 1497 1498 1499 1499 1500 1500 1501 1502 1502 1503
1466 1468 1470 1472 1473 1474 1475 1476 1476 1477 1477 1477 1478 1478 1478 1479 1479 1479 1480 1480 1481 1481 1482 1483 1484 1485 1486 1487 1489 1490 1491 1492 1493 1495 1495 1496 1497 1497 1498 1499 1500 1500 1501
1463 1464 1466 1468 1469 1470 1471 1472 1472 1473 1473 1474 1474 1474 1475 1475 1475 1476 1476 1477 1477 1478 1479 1480 1481 1482 1483 1484 1486 1487 1488 1489 1491 1492 1493 1493 1494 1495 1496 1497 1497 1498 1498
1459 1460 1462 1464 1465 1466 1467 1468 1468 1469 1469 1470 1471 1471 1471 1472 1472 1472 1473 1474 1474 1475 1476 1477 1478 1479 1481 1482 1483 1484 1485 1487 1488 1489 1490 1491 1492 1493 1494 1494 1495 1496 1496
1455 1457 1458 1460 1461 1462 1463 1464 1464 1465 1466 1467 1467 1467 1468 1468 1469 1469 1470 1471 1472 1473 1474 1474 1475 1476 1478 1479 1480 1482 1483 1484 1485 1487 1488 1488 1489 1490 1491 1492 1492 1493 1494
1451 1453 1454 1456 1457 1458 1459 1460 1460 1461 1462 1463 1464 1464 1465 1465 1466 1466 1467 1468 1469 1470 1471 1472 1473 1474 1475 1476 1478 1479 1480 1482 1483 1484 1485 1486 1486 1488 1488 1489 1490 1490 1491